MIDDLE PEAK CA US current weather conditions

sailwx.info

Wind from 255 at 4 knots gusting 9

Air temperature 7.2° C
Dewpoint -3.1° C

Last reported at 2019-Mar-22 04:36 UTC.
Time now 2019-Mar-22 05:57 UTC

Location: N 37°56' W 122°35'.
View on Google Maps.

See reports from other nearby stations

  
Tides and Currents Weather Stations Pressure Air Temp Water Temp Dewpoint Dewpoint Depression Visibility Wind Speed Wind Dir Waves Ship Positions
date/time (UTC)wind fromknots sea level pressurealtimeterstation pressurevisibilityair tempwater tempwave heightnotes
2019-Mar-22 04:36 255 4 gusting 9 7.2
2019-Mar-22 03:36 238 2 gusting 8 7.8
2019-Mar-22 02:36 272 4 gusting 10 7.8
2019-Mar-22 01:36 287 6 gusting 15 9.4
2019-Mar-22 00:36 287 11 gusting 19 8.9
2019-Mar-21 23:36 292 10 gusting 15 10.0
2019-Mar-21 22:36 289 9 gusting 13 10.6
2019-Mar-21 21:36 309 7 gusting 16 11.7
2019-Mar-21 20:36 319 6 gusting 15 12.2
2019-Mar-21 19:36 331 4 gusting 7 12.2
2019-Mar-21 18:36 013 3 gusting 5 10.6
2019-Mar-21 17:36 334 3 gusting 9 9.4
2019-Mar-21 16:36 332 5 gusting 8 7.8
2019-Mar-21 15:36 331 6 gusting 10 6.1
2019-Mar-21 14:36 323 7 gusting 10 4.4
2019-Mar-21 13:36 328 7 gusting 10 3.9
2019-Mar-21 12:36 316 6 gusting 8 4.4
2019-Mar-21 11:36 315 6 gusting 7 4.4
2019-Mar-21 10:36 245 3 gusting 6 5.0
2019-Mar-21 09:36 176 1 gusting 8 4.4
2019-Mar-21 08:36 272 5 gusting 6 4.4
2019-Mar-21 07:36 012 1 gusting 10 4.4
2019-Mar-21 06:36 244 6 gusting 11 5.0
2019-Mar-21 05:36 272 6 gusting 7 4.4
2019-Mar-21 04:36 264 3 gusting 7 5.0
2019-Mar-21 03:36 257 6 gusting 13 5.6
2019-Mar-21 02:36 262 5 gusting 13 5.0
2019-Mar-21 01:36 252 7 gusting 12 6.1
2019-Mar-21 00:36 273 5 gusting 13 7.8
2019-Mar-20 23:36 268 6 gusting 13 7.8
2019-Mar-20 22:36 253 5 gusting 13 8.9
2019-Mar-20 21:36 234 5 gusting 13 8.9
2019-Mar-20 20:36 249 6 gusting 15 7.2
2019-Mar-20 19:36 255 6 gusting 21 7.2
2019-Mar-20 18:36 245 10 gusting 21 6.7
2019-Mar-20 17:36 212 9 gusting 21 6.7
2019-Mar-20 16:36 193 9 gusting 20 7.2
2019-Mar-20 15:36 222 8 gusting 18 6.7
2019-Mar-20 14:36 183 6 gusting 16 6.7
2019-Mar-20 13:36 135 8 gusting 22 6.7
2019-Mar-20 12:36 135 11 gusting 18 6.7
2019-Mar-20 11:36 164 8 gusting 22 6.1
2019-Mar-20 10:36 128 15 gusting 26 6.7
2019-Mar-20 09:36 119 15 gusting 21 6.1
2019-Mar-20 08:36 120 10 gusting 19 6.7
2019-Mar-20 07:36 140 11 gusting 23 6.7
2019-Mar-20 06:36 154 15 gusting 25 6.7
2019-Mar-20 05:36 147 17 gusting 30 6.7